| time (UTC) | temp F | wind direction | speed MPH | gust MPH | rain 1hr in | rain 24hr in | rain mn in | humidity % | barometer mb |
| 20260509181605 | 83 | 311 | 4.0 | 7.0 | 0.00 | 0.00 | 0.00 | 85 | 1008.0 |
| 20260509181057 | 82 | 354 | 4.0 | 7.0 | 0.00 | 0.00 | 0.00 | 85 | 1008.2 |
| 20260509180551 | 82 | 8 | 4.0 | 7.0 | 0.00 | 0.00 | 0.00 | 86 | 1008.2 |
| 20260509180058 | 82 | 5 | 4.0 | 7.0 | 0.00 | 0.00 | 0.00 | 86 | 1008.2 |
| 20260509175536 | 81 | 342 | 4.0 | 7.0 | 0.00 | 0.00 | 0.00 | 86 | 1008.4 |
| 20260509175306 | 81 | 0 | 4.0 | 7.0 | 0.00 | 0.00 | 0.00 | 86 | 1008.4 |
| 20260509174538 | 81 | 39 | 3.0 | 6.0 | 0.00 | 0.00 | 0.00 | 87 | 1008.4 |
| 20260509174255 | 80 | 34 | 2.0 | 5.0 | 0.00 | 0.00 | 0.00 | 87 | 1008.7 |
| 20260509173533 | 80 | 344 | 2.0 | 5.0 | 0.00 | 0.00 | 0.00 | 87 | 1008.7 |
| 20260509173037 | 80 | 335 | 3.0 | 8.0 | 0.00 | 0.00 | 0.00 | 87 | 1008.7 |
| 20260509172529 | 80 | 7 | 4.0 | 8.0 | 0.00 | 0.00 | 0.00 | 88 | 1008.7 |
| 20260509172301 | 80 | 21 | 5.0 | 8.0 | 0.00 | 0.00 | 0.00 | 88 | 1008.7 |
| 20260509171753 | 80 | 346 | 6.0 | 8.0 | 0.00 | 0.00 | 0.00 | 88 | 1008.7 |
| 20260509171034 | 79 | 340 | 6.0 | 7.0 | 0.00 | 0.00 | 0.00 | 88 | 1008.7 |
| 20260509170236 | 79 | 340 | 5.0 | 7.0 | 0.00 | 0.00 | 0.00 | 89 | 1008.7 |
| 20260509165608 | 79 | 299 | 6.0 | 10.0 | 0.00 | 0.00 | 0.00 | 89 | 1008.3 |
| 20260509165108 | 78 | 332 | 6.0 | 10.0 | 0.00 | 0.00 | 0.00 | 89 | 1008.3 |
| 20260509164607 | 78 | 357 | 5.0 | 10.0 | 0.00 | 0.00 | 0.00 | 89 | 1008.3 |
| 20260509164108 | 78 | 13 | 6.0 | 10.0 | 0.00 | 0.00 | 0.00 | 89 | 1008.7 |
| 20260509163823 | 78 | 14 | 6.0 | 10.0 | 0.00 | 0.00 | 0.00 | 89 | 1008.7 |
| 20260509163107 | 77 | 9 | 5.0 | 8.0 | 0.00 | 0.00 | 0.00 | 89 | 1008.7 |
| 20260509162607 | 77 | 358 | 5.0 | 9.0 | 0.00 | 0.00 | 0.00 | 89 | 1008.7 |
| 20260509162053 | 77 | 29 | 5.0 | 9.0 | 0.00 | 0.00 | 0.00 | 90 | 1008.7 |
| 20260509161537 | 77 | 3 | 5.0 | 8.0 | 0.00 | 0.00 | 0.00 | 90 | 1008.7 |
| 20260509161029 | 76 | 6 | 4.0 | 8.0 | 0.00 | 0.00 | 0.00 | 90 | 1008.7 |
| 20260509160524 | 76 | 357 | 4.0 | 6.0 | 0.00 | 0.00 | 0.00 | 90 | 1008.7 |
| 20260509160227 | 76 | 340 | 2.0 | 6.0 | 0.00 | 0.00 | 0.00 | 90 | 1008.7 |
| 20260509155503 | 77 | 90 | 1.0 | 4.0 | 0.00 | 0.00 | 0.00 | 90 | 1008.7 |
| 20260509155222 | 77 | 43 | 1.0 | 3.0 | 0.00 | 0.00 | 0.00 | 90 | 1008.7 |
| 20260509154715 | 77 | 43 | 0.0 | 3.0 | 0.00 | 0.00 | 0.00 | 90 | 1009.0 |
| 20260509154207 | 77 | 118 | 0.0 | 0.0 | 0.00 | 0.00 | 0.00 | 90 | 1009.0 |
| 20260509153423 | 77 | 118 | 0.0 | 6.0 | 0.00 | 0.00 | 0.00 | 90 | 1009.0 |
| 20260509153154 | 76 | 118 | 2.0 | 6.0 | 0.00 | 0.00 | 0.00 | 90 | 1008.3 |
| 20260509152412 | 76 | 118 | 3.0 | 6.0 | 0.00 | 0.00 | 0.00 | 90 | 1008.3 |
| 20260509151905 | 76 | 123 | 3.0 | 6.0 | 0.00 | 0.00 | 0.00 | 90 | 1008.3 |
| 20260509151403 | 76 | 141 | 3.0 | 6.0 | 0.00 | 0.00 | 0.00 | 90 | 1008.3 |
| 20260509151122 | 76 | 119 | 2.0 | 5.0 | 0.00 | 0.00 | 0.00 | 90 | 1008.3 |
| 20260509150402 | 76 | 144 | 2.0 | 5.0 | 0.00 | 0.00 | 0.00 | 90 | 1008.3 |
| 20260509150127 | 76 | 145 | 2.0 | 5.0 | 0.00 | 0.00 | 0.00 | 90 | 1008.3 |
| 20260509145618 | 76 | 146 | 3.0 | 7.0 | 0.00 | 0.00 | 0.00 | 90 | 1008.3 |
| 20260509144858 | 76 | 153 | 3.0 | 7.0 | 0.00 | 0.00 | 0.00 | 90 | 1008.3 |
| 20260509144357 | 76 | 172 | 3.0 | 7.0 | 0.00 | 0.00 | 0.00 | 90 | 1008.7 |
| 20260509144115 | 76 | 189 | 4.0 | 7.0 | 0.00 | 0.00 | 0.00 | 90 | 1008.7 |
| 20260509143357 | 76 | 209 | 4.0 | 7.0 | 0.00 | 0.00 | 0.00 | 90 | 1008.7 |
| 20260509142856 | 76 | 192 | 4.0 | 7.0 | 0.00 | 0.00 | 0.00 | 90 | 1008.3 |
| 20260509142358 | 75 | 215 | 4.0 | 7.0 | 0.00 | 0.00 | 0.00 | 90 | 1008.3 |
| 20260509141857 | 75 | 218 | 4.0 | 7.0 | 0.00 | 0.00 | 0.00 | 90 | 1008.3 |
| 20260509141610 | 75 | 223 | 3.0 | 8.0 | 0.00 | 0.00 | 0.00 | 90 | 1007.8 |
| 20260509140833 | 75 | 238 | 5.0 | 8.0 | 0.00 | 0.00 | 0.00 | 90 | 1007.8 |
| 20260509140322 | 75 | 243 | 5.0 | 9.0 | 0.00 | 0.00 | 0.00 | 90 | 1007.8 |
| 20260509135817 | 75 | 249 | 3.0 | 9.0 | 0.00 | 0.00 | 0.00 | 90 | 1007.9 |
| 20260509135311 | 74 | 263 | 2.0 | 6.0 | 0.00 | 0.00 | 0.00 | 90 | 1007.9 |
| 20260509134802 | 74 | 351 | 4.0 | 7.0 | 0.00 | 0.00 | 0.00 | 90 | 1007.9 |
| 20260509134518 | 74 | 0 | 5.0 | 9.0 | 0.00 | 0.00 | 0.00 | 90 | 1008.1 |
| 20260509133740 | 74 | 354 | 6.0 | 13.0 | 0.00 | 0.00 | 0.00 | 90 | 1008.1 |
| 20260509133231 | 74 | 11 | 8.0 | 13.0 | 0.00 | 0.00 | 0.00 | 90 | 1008.1 |
| 20260509132732 | 74 | 343 | 9.0 | 13.0 | 0.00 | 0.00 | 0.00 | 90 | 1008.2 |
| 20260509132450 | 74 | 342 | 9.0 | 13.0 | 0.00 | 0.00 | 0.00 | 90 | 1008.2 |
| 20260509131957 | 74 | 342 | 8.0 | 21.0 | 0.00 | 0.00 | 0.00 | 90 | 1008.2 |
| 20260509131232 | 74 | 340 | 10.0 | 21.0 | 0.00 | 0.00 | 0.00 | 90 | 1007.7 |
| 20260509130955 | 74 | 1 | 11.0 | 21.0 | 0.00 | 0.00 | 0.00 | 91 | 1007.7 |
| 20260509130229 | 74 | 347 | 8.0 | 21.0 | 0.00 | 0.00 | 0.00 | 90 | 1007.7 |
| 20260509125730 | 74 | 330 | 9.0 | 19.0 | 0.00 | 0.00 | 0.00 | 91 | 1007.6 |
| 20260509125229 | 74 | 338 | 9.0 | 25.0 | 0.00 | 0.00 | 0.00 | 91 | 1007.6 |
| 20260509124728 | 74 | 332 | 11.0 | 25.0 | 0.00 | 0.00 | 0.00 | 90 | 1007.6 |
| 20260509124228 | 74 | 95 | 18.0 | 25.0 | 0.00 | 0.00 | 0.00 | 91 | 1006.6 |
| 20260509123941 | 74 | 116 | 19.0 | 27.0 | 0.00 | 0.00 | 0.00 | 90 | 1006.6 |
| 20260509123217 | 75 | 109 | 20.0 | 27.0 | 0.00 | 0.00 | 0.00 | 91 | 1006.6 |
| 20260509122718 | 75 | 90 | 19.0 | 27.0 | 0.00 | 0.00 | 0.00 | 91 | 1007.2 |
| 20260509122436 | 75 | 105 | 15.0 | 24.0 | 0.00 | 0.00 | 0.00 | 90 | 1007.2 |
| 20260509121938 | 75 | 70 | 12.0 | 20.0 | 0.00 | 0.00 | 0.00 | 90 | 1007.2 |
| 20260509121218 | 75 | 104 | 10.0 | 16.0 | 0.00 | 0.00 | 0.00 | 90 | 1008.2 |
| 20260509120717 | 75 | 125 | 8.0 | 15.0 | 0.00 | 0.00 | 0.00 | 90 | 1008.2 |
| 20260509120441 | 75 | 85 | 6.0 | 15.0 | 0.00 | 0.00 | 0.00 | 90 | 1008.2 |
| 20260509115937 | 75 | 67 | 7.0 | 15.0 | 0.00 | 0.00 | 0.00 | 90 | 1008.4 |
| 20260509115210 | 75 | 118 | 9.0 | 16.0 | 0.00 | 0.00 | 0.00 | 90 | 1008.4 |
| 20260509114709 | 75 | 149 | 8.0 | 16.0 | 0.00 | 0.00 | 0.00 | 90 | 1008.4 |
| 20260509114426 | 75 | 203 | 7.0 | 14.0 | 0.00 | 0.00 | 0.00 | 90 | 1008.7 |
| 20260509113710 | 75 | 209 | 8.0 | 15.0 | 0.00 | 0.00 | 0.00 | 90 | 1008.7 |
| 20260509113430 | 75 | 90 | 7.0 | 15.0 | 0.00 | 0.00 | 0.00 | 90 | 1008.7 |
| 20260509112708 | 75 | 176 | 5.0 | 11.0 | 0.00 | 0.00 | 0.00 | 90 | 1008.6 |
| 20260509112208 | 75 | 179 | 4.0 | 9.0 | 0.00 | 0.00 | 0.00 | 90 | 1008.6 |
| 20260509111708 | 75 | 132 | 3.0 | 9.0 | 0.00 | 0.00 | 0.00 | 90 | 1008.6 |
| 20260509111210 | 75 | 131 | 5.0 | 9.0 | 0.00 | 0.00 | 0.00 | 90 | 1008.2 |
| 20260509110708 | 75 | 153 | 6.0 | 9.0 | 0.00 | 0.00 | 0.00 | 90 | 1008.2 |
| 20260509110210 | 75 | 168 | 5.0 | 8.0 | 0.00 | 0.00 | 0.00 | 90 | 1008.2 |
| 20260509105920 | 75 | 161 | 3.0 | 7.0 | 0.00 | 0.00 | 0.00 | 90 | 1008.2 |
| 20260509105200 | 74 | 155 | 1.0 | 7.0 | 0.00 | 0.00 | 0.00 | 90 | 1008.2 |
| 20260509104925 | 74 | 122 | 0.0 | 0.0 | 0.00 | 0.00 | 0.00 | 90 | 1008.2 |
| 20260509104418 | 74 | 116 | 0.0 | 0.0 | 0.00 | 0.00 | 0.00 | 90 | 1008.0 |
| 20260509103657 | 75 | 116 | 1.0 | 2.0 | 0.00 | 0.00 | 0.00 | 90 | 1008.0 |
| 20260509103155 | 75 | 116 | 1.0 | 2.0 | 0.00 | 0.00 | 0.00 | 90 | 1008.0 |
| 20260509102652 | 75 | 116 | 0.0 | 2.0 | 0.00 | 0.00 | 0.00 | 90 | 1007.8 |
| 20260509102151 | 75 | 116 | 0.0 | 3.0 | 0.00 | 0.00 | 0.00 | 90 | 1007.8 |
| 20260509101649 | 75 | 116 | 2.0 | 4.0 | 0.00 | 0.00 | 0.00 | 90 | 1007.8 |
| 20260509101147 | 75 | 116 | 3.0 | 4.0 | 0.00 | 0.00 | 0.00 | 90 | 1007.7 |
| 20260509100645 | 75 | 112 | 1.0 | 4.0 | 0.00 | 0.00 | 0.00 | 90 | 1007.7 |
| 20260509100144 | 75 | 101 | 0.0 | 2.0 | 0.00 | 0.00 | 0.00 | 90 | 1007.7 |
| 20260509095637 | 75 | 101 | 1.0 | 3.0 | 0.00 | 0.00 | 0.00 | 90 | 1007.8 |
| 20260509095128 | 75 | 101 | 1.0 | 3.0 | 0.00 | 0.00 | 0.00 | 90 | 1007.8 |
| 20260509094622 | 75 | 133 | 0.0 | 5.0 | 0.00 | 0.00 | 0.00 | 90 | 1007.8 |
| 20260509094330 | 75 | 133 | 0.0 | 5.0 | 0.00 | 0.00 | 0.00 | 90 | 1007.5 |
| 20260509093606 | 75 | 133 | 1.0 | 5.0 | 0.00 | 0.00 | 0.00 | 90 | 1007.5 |
| 20260509093056 | 75 | 133 | 2.0 | 5.0 | 0.00 | 0.00 | 0.00 | 90 | 1007.5 |
| 20260509092550 | 75 | 140 | 2.0 | 5.0 | 0.00 | 0.00 | 0.00 | 90 | 1007.3 |
| 20260509092035 | 75 | 139 | 2.0 | 5.0 | 0.00 | 0.00 | 0.00 | 90 | 1007.3 |
| 20260509091530 | 75 | 130 | 2.0 | 4.0 | 0.00 | 0.00 | 0.00 | 90 | 1007.3 |
| 20260509091028 | 75 | 123 | 2.0 | 5.0 | 0.00 | 0.00 | 0.00 | 90 | 1006.7 |
| 20260509090527 | 75 | 118 | 3.0 | 5.0 | 0.00 | 0.00 | 0.00 | 90 | 1006.7 |
| 20260509090024 | 75 | 105 | 5.0 | 9.0 | 0.00 | 0.00 | 0.00 | 90 | 1006.7 |
| 20260509085525 | 75 | 131 | 5.0 | 9.0 | 0.00 | 0.00 | 0.00 | 90 | 1006.6 |
| 20260509085024 | 75 | 125 | 6.0 | 9.0 | 0.00 | 0.00 | 0.00 | 90 | 1006.6 |
| 20260509084524 | 75 | 113 | 5.0 | 9.0 | 0.00 | 0.00 | 0.00 | 90 | 1006.6 |
| 20260509084025 | 75 | 116 | 4.0 | 7.0 | 0.00 | 0.00 | 0.00 | 90 | 1007.1 |
| 20260509083523 | 75 | 128 | 4.0 | 6.0 | 0.00 | 0.00 | 0.00 | 90 | 1007.1 |
| 20260509083021 | 75 | 126 | 5.0 | 8.0 | 0.00 | 0.00 | 0.00 | 90 | 1007.1 |
| 20260509082522 | 75 | 118 | 5.0 | 8.0 | 0.00 | 0.00 | 0.00 | 90 | 1007.2 |
| 20260509082009 | 75 | 124 | 5.0 | 8.0 | 0.00 | 0.00 | 0.00 | 90 | 1007.2 |
| 20260509081506 | 75 | 124 | 5.0 | 8.0 | 0.00 | 0.00 | 0.00 | 90 | 1007.2 |
| 20260509081007 | 75 | 121 | 5.0 | 7.0 | 0.00 | 0.00 | 0.00 | 90 | 1007.6 |
| 20260509080506 | 75 | 130 | 4.0 | 7.0 | 0.00 | 0.00 | 0.00 | 90 | 1007.6 |
| 20260509080008 | 75 | 118 | 3.0 | 5.0 | 0.00 | 0.00 | 0.00 | 90 | 1007.6 |
| 20260509075506 | 75 | 114 | 1.0 | 5.0 | 0.00 | 0.00 | 0.00 | 90 | 1008.1 |
| 20260509075008 | 75 | 90 | 0.0 | 0.0 | 0.00 | 0.00 | 0.00 | 90 | 1008.1 |
| 20260509074505 | 75 | 85 | 0.0 | 4.0 | 0.00 | 0.00 | 0.00 | 90 | 1008.1 |
| 20260509074002 | 75 | 85 | 0.0 | 4.0 | 0.00 | 0.00 | 0.00 | 90 | 1008.2 |
| 20260509073457 | 75 | 85 | 2.0 | 4.0 | 0.00 | 0.00 | 0.00 | 90 | 1008.2 |
| 20260509073208 | 76 | 85 | 2.0 | 4.0 | 0.00 | 0.00 | 0.00 | 90 | 1008.2 |
| 20260509072437 | 76 | 109 | 1.0 | 3.0 | 0.00 | 0.00 | 0.00 | 90 | 1008.2 |
| 20260509071926 | 76 | 124 | 0.0 | 3.0 | 0.00 | 0.00 | 0.00 | 90 | 1008.2 |
| 20260509071420 | 76 | 124 | 1.0 | 3.0 | 0.00 | 0.00 | 0.00 | 90 | 1008.3 |
| 20260509070907 | 76 | 124 | 1.0 | 4.0 | 0.00 | 0.00 | 0.00 | 90 | 1008.3 |
| 20260509070401 | 76 | 124 | 1.0 | 4.0 | 0.00 | 0.00 | 0.00 | 90 | 1008.3 |
| 20260509065851 | 76 | 124 | 2.0 | 4.0 | 0.00 | 0.00 | 0.00 | 90 | 1008.3 |
| 20260509065343 | 76 | 124 | 2.0 | 5.0 | 0.00 | 0.00 | 0.00 | 90 | 1008.3 |
| 20260509065102 | 76 | 128 | 2.0 | 5.0 | 0.00 | 0.00 | 0.00 | 90 | 1008.3 |
| 20260509064337 | 75 | 126 | 3.0 | 5.0 | 0.00 | 0.00 | 0.00 | 90 | 1008.1 |
| 20260509063837 | 75 | 126 | 3.0 | 5.0 | 0.00 | 0.00 | 0.00 | 90 | 1008.1 |
| 20260509063555 | 75 | 132 | 4.0 | 6.0 | 0.00 | 0.00 | 0.00 | 90 | 1008.1 |
| 20260509062838 | 75 | 90 | 4.0 | 6.0 | 0.00 | 0.00 | 0.00 | 89 | 1008.3 |
| 20260509061839 | 75 | 128 | 4.0 | 8.0 | 0.00 | 0.00 | 0.00 | 89 | 1008.3 |
| 20260509061338 | 75 | 119 | 4.0 | 8.0 | 0.00 | 0.00 | 0.00 | 89 | 1008.2 |
| 20260509060837 | 75 | 126 | 5.0 | 8.0 | 0.00 | 0.00 | 0.00 | 89 | 1008.2 |
| 20260509060337 | 75 | 122 | 5.0 | 8.0 | 0.00 | 0.00 | 0.00 | 89 | 1008.2 |
| 20260509055838 | 75 | 126 | 5.0 | 8.0 | 0.00 | 0.00 | 0.00 | 89 | 1008.2 |
| 20260509055337 | 74 | 124 | 5.0 | 7.0 | 0.00 | 0.00 | 0.00 | 89 | 1008.2 |
| 20260509054823 | 74 | 112 | 5.0 | 7.0 | 0.00 | 0.00 | 0.00 | 89 | 1008.2 |
| 20260509054317 | 74 | 105 | 5.0 | 8.0 | 0.00 | 0.00 | 0.00 | 89 | 1008.2 |
| 20260509053807 | 74 | 114 | 5.0 | 9.0 | 0.00 | 0.00 | 0.00 | 89 | 1008.2 |
| 20260509053257 | 74 | 120 | 5.0 | 9.0 | 0.00 | 0.00 | 0.00 | 89 | 1008.2 |
| 20260509052751 | 74 | 134 | 5.0 | 9.0 | 0.00 | 0.00 | 0.00 | 89 | 1008.6 |
| 20260509052244 | 74 | 140 | 5.0 | 8.0 | 0.00 | 0.00 | 0.00 | 89 | 1008.6 |
| 20260509051732 | 74 | 130 | 4.0 | 8.0 | 0.00 | 0.00 | 0.00 | 89 | 1008.6 |
| 20260509051223 | 74 | 121 | 4.0 | 7.0 | 0.00 | 0.00 | 0.00 | 89 | 1008.7 |
| 20260509050708 | 74 | 116 | 4.0 | 6.0 | 0.00 | 0.00 | 0.00 | 89 | 1008.7 |
| 20260509050201 | 74 | 115 | 3.0 | 6.0 | 0.00 | 0.00 | 0.00 | 89 | 1008.7 |
| 20260509045652 | 74 | 103 | 3.0 | 6.0 | 0.00 | 0.00 | 0.00 | 89 | 1008.7 |
| 20260509045142 | 74 | 90 | 4.0 | 6.0 | 0.00 | 0.00 | 0.00 | 89 | 1008.7 |
| 20260509044639 | 74 | 95 | 3.0 | 6.0 | 0.00 | 0.00 | 0.00 | 89 | 1008.7 |
| 20260509044355 | 74 | 85 | 3.0 | 5.0 | 0.00 | 0.00 | 0.00 | 89 | 1008.6 |
| 20260509043642 | 74 | 90 | 3.0 | 6.0 | 0.00 | 0.00 | 0.00 | 89 | 1008.6 |
| 20260509043130 | 74 | 95 | 3.0 | 6.0 | 0.00 | 0.00 | 0.00 | 89 | 1008.6 |
| 20260509042856 | 74 | 85 | 4.0 | 6.0 | 0.00 | 0.00 | 0.00 | 89 | 1008.5 |
| 20260509042130 | 74 | 101 | 4.0 | 6.0 | 0.00 | 0.00 | 0.00 | 89 | 1008.5 |
| 20260509041630 | 74 | 95 | 4.0 | 6.0 | 0.00 | 0.00 | 0.00 | 89 | 1008.5 |
| 20260509041350 | 74 | 103 | 4.0 | 6.0 | 0.00 | 0.00 | 0.00 | 89 | 1008.5 |
| 20260509040849 | 74 | 95 | 4.0 | 7.0 | 0.00 | 0.00 | 0.00 | 89 | 1008.5 |
| 20260509040129 | 74 | 110 | 4.0 | 7.0 | 0.00 | 0.00 | 0.00 | 89 | 1008.5 |
| 20260509035627 | 74 | 95 | 4.0 | 6.0 | 0.00 | 0.00 | 0.00 | 89 | 1008.3 |
| 20260509035117 | 74 | 90 | 4.0 | 6.0 | 0.00 | 0.00 | 0.00 | 89 | 1008.3 |
| 20260509034832 | 74 | 85 | 3.0 | 6.0 | 0.00 | 0.00 | 0.00 | 89 | 1008.3 |
| 20260509034058 | 74 | 99 | 4.0 | 7.0 | 0.00 | 0.00 | 0.00 | 89 | 1008.2 |
| 20260509033552 | 74 | 95 | 4.0 | 7.0 | 0.00 | 0.00 | 0.00 | 89 | 1008.2 |
| 20260509033259 | 74 | 103 | 4.0 | 6.0 | 0.00 | 0.00 | 0.00 | 89 | 1008.2 |
| 20260509032535 | 74 | 107 | 3.0 | 6.0 | 0.00 | 0.00 | 0.00 | 88 | 1007.9 |
| 20260509032021 | 74 | 90 | 3.0 | 7.0 | 0.00 | 0.00 | 0.00 | 88 | 1007.9 |
| 20260509031736 | 74 | 69 | 3.0 | 8.0 | 0.00 | 0.00 | 0.00 | 88 | 1007.9 |
| 20260509031013 | 74 | 52 | 3.0 | 8.0 | 0.00 | 0.00 | 0.00 | 88 | 1007.7 |
| 20260509030503 | 74 | 50 | 3.0 | 6.0 | 0.00 | 0.00 | 0.00 | 88 | 1007.7 |
| 20260509025953 | 74 | 61 | 2.0 | 5.0 | 0.00 | 0.00 | 0.00 | 88 | 1007.4 |
| 20260509025448 | 74 | 54 | 2.0 | 5.0 | 0.00 | 0.00 | 0.00 | 88 | 1007.4 |
| 20260509024936 | 74 | 68 | 2.0 | 6.0 | 0.00 | 0.00 | 0.00 | 88 | 1007.4 |
| 20260509024427 | 74 | 85 | 3.0 | 6.0 | 0.00 | 0.00 | 0.00 | 88 | 1007.2 |
| 20260509023926 | 74 | 56 | 3.0 | 6.0 | 0.00 | 0.00 | 0.00 | 88 | 1007.2 |
| 20260509023427 | 74 | 35 | 3.0 | 5.0 | 0.00 | 0.00 | 0.00 | 88 | 1007.2 |
| 20260509022925 | 74 | 80 | 2.0 | 5.0 | 0.00 | 0.00 | 0.00 | 88 | 1007.3 |
| 20260509022422 | 74 | 85 | 2.0 | 5.0 | 0.00 | 0.00 | 0.00 | 88 | 1007.3 |
| 20260509021922 | 74 | 74 | 2.0 | 5.0 | 0.00 | 0.00 | 0.00 | 88 | 1007.3 |
| 20260509021428 | 74 | 58 | 2.0 | 5.0 | 0.00 | 0.00 | 0.00 | 88 | 1007.2 |
| 20260509020927 | 74 | 47 | 2.0 | 4.0 | 0.00 | 0.00 | 0.00 | 88 | 1007.2 |
| 20260509020642 | 74 | 58 | 2.0 | 5.0 | 0.00 | 0.00 | 0.00 | 88 | 1007.2 |
| 20260509015921 | 74 | 57 | 2.0 | 5.0 | 0.00 | 0.00 | 0.00 | 88 | 1007.2 |
| 20260509014910 | 74 | 61 | 2.0 | 5.0 | 0.00 | 0.00 | 0.00 | 88 | 1007.2 |
| 20260509013914 | 74 | 59 | 2.0 | 6.0 | 0.00 | 0.00 | 0.00 | 88 | 1006.7 |
| 20260509013411 | 74 | 60 | 3.0 | 7.0 | 0.00 | 0.00 | 0.00 | 88 | 1006.7 |
| 20260509012910 | 74 | 43 | 3.0 | 7.0 | 0.00 | 0.00 | 0.00 | 88 | 1006.6 |
| 20260509012414 | 74 | 56 | 3.0 | 6.0 | 0.00 | 0.00 | 0.00 | 88 | 1006.6 |
| 20260509011910 | 74 | 59 | 3.0 | 6.0 | 0.00 | 0.00 | 0.00 | 88 | 1006.6 |
| 20260509011632 | 74 | 62 | 3.0 | 8.0 | 0.00 | 0.00 | 0.00 | 88 | 1006.6 |
| 20260509010901 | 74 | 57 | 3.0 | 8.0 | 0.00 | 0.00 | 0.00 | 88 | 1006.6 |
| 20260509010356 | 74 | 55 | 3.0 | 8.0 | 0.00 | 0.00 | 0.00 | 88 | 1006.6 |
| 20260509005845 | 74 | 51 | 3.0 | 8.0 | 0.00 | 0.00 | 0.00 | 88 | 1006.4 |
| 20260509005335 | 74 | 47 | 4.0 | 8.0 | 0.00 | 0.00 | 0.00 | 88 | 1006.4 |
| 20260509004829 | 74 | 47 | 4.0 | 8.0 | 0.00 | 0.00 | 0.00 | 88 | 1006.4 |
| 20260509004333 | 74 | 64 | 3.0 | 6.0 | 0.00 | 0.00 | 0.00 | 88 | 1006.6 |
| 20260509003828 | 74 | 71 | 4.0 | 10.0 | 0.00 | 0.00 | 0.00 | 88 | 1006.6 |
| 20260509003327 | 74 | 85 | 5.0 | 10.0 | 0.00 | 0.00 | 0.00 | 88 | 1006.6 |
| 20260509002828 | 74 | 111 | 5.0 | 9.0 | 0.00 | 0.00 | 0.00 | 88 | 1006.3 |
| 20260509002329 | 74 | 61 | 5.0 | 9.0 | 0.00 | 0.00 | 0.00 | 88 | 1006.3 |
| 20260509001833 | 74 | 70 | 5.0 | 9.0 | 0.00 | 0.00 | 0.00 | 88 | 1006.3 |
| 20260509001328 | 74 | 76 | 5.0 | 9.0 | 0.00 | 0.00 | 0.00 | 88 | 1006.6 |
| 20260509000829 | 74 | 59 | 6.0 | 9.0 | 0.00 | 0.00 | 0.00 | 88 | 1006.6 |
| 20260509000548 | 74 | 57 | 5.0 | 11.0 | 0.00 | 0.00 | 0.00 | 88 | 1006.6 |
| 20260508235831 | 74 | 78 | 4.0 | 11.0 | 0.00 | 0.00 | 0.00 | 88 | 1006.5 |
| 20260508235328 | 74 | 64 | 5.0 | 11.0 | 0.00 | 0.00 | 0.00 | 88 | 1006.5 |
| 20260508234823 | 74 | 85 | 5.0 | 12.0 | 0.00 | 0.00 | 0.00 | 88 | 1006.5 |
| 20260508234321 | 74 | 80 | 5.0 | 12.0 | 0.00 | 0.00 | 0.00 | 88 | 1006.3 |
| 20260508233807 | 74 | 53 | 6.0 | 12.0 | 0.00 | 0.00 | 0.00 | 88 | 1006.3 |
| 20260508233257 | 74 | 90 | 6.0 | 12.0 | 0.00 | 0.00 | 0.00 | 88 | 1006.3 |
| 20260508232751 | 74 | 63 | 5.0 | 11.0 | 0.00 | 0.00 | 0.00 | 88 | 1006.7 |
| 20260508232249 | 74 | 55 | 6.0 | 11.0 | 0.00 | 0.00 | 0.00 | 88 | 1006.7 |
| 20260508231740 | 74 | 32 | 5.0 | 9.0 | 0.00 | 0.00 | 0.00 | 88 | 1006.7 |
| 20260508231221 | 74 | 31 | 5.0 | 10.0 | 0.00 | 0.00 | 0.00 | 88 | 1006.6 |
| 20260508230204 | 74 | 59 | 4.0 | 11.0 | 0.00 | 0.00 | 0.00 | 88 | 1006.6 |
| 20260508225928 | 74 | 85 | 5.0 | 11.0 | 0.00 | 0.00 | 0.00 | 88 | 1006.6 |
| 20260508224701 | 74 | 63 | 6.0 | 11.0 | 0.00 | 0.00 | 0.00 | 88 | 1006.6 |
| 20260508224202 | 74 | 62 | 5.0 | 11.0 | 0.00 | 0.00 | 0.00 | 88 | 1006.8 |
| 20260508223659 | 74 | 53 | 5.0 | 11.0 | 0.00 | 0.00 | 0.00 | 88 | 1006.8 |
| 20260508223202 | 74 | 66 | 5.0 | 10.0 | 0.00 | 0.00 | 0.00 | 88 | 1006.8 |
| 20260508222701 | 74 | 85 | 5.0 | 10.0 | 0.00 | 0.00 | 0.00 | 88 | 1007.1 |
| 20260508222157 | 74 | 54 | 5.0 | 10.0 | 0.00 | 0.00 | 0.00 | 88 | 1007.1 |
| 20260508221658 | 74 | 63 | 5.0 | 10.0 | 0.00 | 0.00 | 0.00 | 88 | 1007.1 |
| 20260508221158 | 74 | 90 | 5.0 | 10.0 | 0.00 | 0.00 | 0.00 | 88 | 1007.2 |
| 20260508220659 | 74 | 60 | 5.0 | 11.0 | 0.00 | 0.00 | 0.00 | 88 | 1007.2 |
| 20260508220158 | 74 | 90 | 4.0 | 11.0 | 0.00 | 0.00 | 0.00 | 88 | 1007.2 |
| 20260508215913 | 74 | 67 | 5.0 | 11.0 | 0.00 | 0.00 | 0.00 | 88 | 1007.1 |
| 20260508215154 | 74 | 75 | 5.0 | 11.0 | 0.00 | 0.00 | 0.00 | 89 | 1007.1 |
| 20260508214653 | 74 | 67 | 6.0 | 10.0 | 0.00 | 0.00 | 0.00 | 89 | 1007.1 |
| 20260508214153 | 74 | 95 | 6.0 | 11.0 | 0.00 | 0.00 | 0.00 | 89 | 1007.2 |
| 20260508213653 | 73 | 72 | 5.0 | 11.0 | 0.00 | 0.00 | 0.00 | 89 | 1007.2 |
| 20260508213153 | 73 | 76 | 5.0 | 8.0 | 0.00 | 0.00 | 0.00 | 89 | 1007.2 |
| 20260508212654 | 73 | 90 | 4.0 | 8.0 | 0.00 | 0.00 | 0.00 | 89 | 1007.6 |
| 20260508212151 | 73 | 63 | 4.0 | 8.0 | 0.00 | 0.00 | 0.00 | 89 | 1007.6 |
| 20260508211652 | 73 | 61 | 5.0 | 10.0 | 0.00 | 0.00 | 0.00 | 89 | 1007.6 |
| 20260508211406 | 73 | 60 | 6.0 | 10.0 | 0.00 | 0.00 | 0.00 | 89 | 1007.7 |
| 20260508210651 | 73 | 76 | 6.0 | 10.0 | 0.00 | 0.00 | 0.00 | 89 | 1007.7 |
| 20260508210153 | 73 | 47 | 5.0 | 10.0 | 0.00 | 0.00 | 0.00 | 89 | 1007.7 |
| 20260508205647 | 73 | 57 | 5.0 | 10.0 | 0.00 | 0.00 | 0.00 | 89 | 1007.8 |
| 20260508205148 | 73 | 36 | 6.0 | 10.0 | 0.00 | 0.00 | 0.00 | 89 | 1007.8 |
| 20260508204647 | 73 | 63 | 6.0 | 11.0 | 0.00 | 0.00 | 0.00 | 89 | 1007.8 |
| 20260508204408 | 73 | 59 | 5.0 | 11.0 | 0.00 | 0.00 | 0.00 | 89 | 1008.1 |
| 20260508203648 | 73 | 59 | 5.0 | 10.0 | 0.00 | 0.00 | 0.00 | 89 | 1008.1 |
| 20260508203147 | 73 | 51 | 6.0 | 11.0 | 0.00 | 0.00 | 0.00 | 89 | 1008.1 |
| 20260508202638 | 72 | 57 | 6.0 | 13.0 | 0.00 | 0.00 | 0.00 | 89 | 1008.4 |
| 20260508202132 | 72 | 48 | 7.0 | 13.0 | 0.00 | 0.00 | 0.00 | 89 | 1008.4 |
| 20260508201108 | 72 | 30 | 8.0 | 13.0 | 0.00 | 0.00 | 0.00 | 89 | 1008.3 |
| 20260508200559 | 72 | 31 | 7.0 | 12.0 | 0.00 | 0.00 | 0.00 | 89 | 1008.3 |
| 20260508200059 | 72 | 28 | 7.0 | 12.0 | 0.00 | 0.00 | 0.00 | 89 | 1008.3 |
| 20260508195826 | 72 | 30 | 7.0 | 12.0 | 0.00 | 0.00 | 0.00 | 89 | 1008.7 |
| 20260508195322 | 72 | 36 | 7.0 | 11.0 | 0.00 | 0.00 | 0.00 | 89 | 1008.7 |
| 20260508194820 | 72 | 18 | 8.0 | 11.0 | 0.00 | 0.00 | 0.00 | 89 | 1008.7 |
| 20260508194057 | 72 | 27 | 7.0 | 10.0 | 0.00 | 0.00 | 0.00 | 89 | 1008.7 |
| 20260508193557 | 72 | 54 | 7.0 | 12.0 | 0.00 | 0.00 | 0.00 | 89 | 1008.7 |
| 20260508193057 | 72 | 49 | 7.0 | 12.0 | 0.00 | 0.00 | 0.00 | 89 | 1008.7 |
| 20260508192558 | 71 | 39 | 7.0 | 12.0 | 0.00 | 0.00 | 0.00 | 89 | 1008.9 |
| 20260508192057 | 71 | 33 | 7.0 | 11.0 | 0.00 | 0.00 | 0.00 | 89 | 1008.9 |
| 20260508191558 | 71 | 30 | 7.0 | 11.0 | 0.00 | 0.00 | 0.00 | 89 | 1008.9 |
| 20260508191058 | 71 | 45 | 7.0 | 11.0 | 0.00 | 0.00 | 0.00 | 89 | 1009.1 |
| 20260508190552 | 71 | 20 | 7.0 | 11.0 | 0.00 | 0.00 | 0.00 | 89 | 1009.1 |
| 20260508190046 | 71 | 32 | 7.0 | 11.0 | 0.00 | 0.00 | 0.00 | 89 | 1009.1 |
| 20260508185536 | 71 | 47 | 6.0 | 11.0 | 0.00 | 0.00 | 0.00 | 88 | 1009.2 |
| 20260508185028 | 71 | 16 | 6.0 | 10.0 | 0.00 | 0.00 | 0.00 | 88 | 1009.2 |
| 20260508184528 | 70 | 19 | 6.0 | 11.0 | 0.00 | 0.00 | 0.00 | 89 | 1009.2 |
| 20260508184251 | 70 | 19 | 7.0 | 11.0 | 0.00 | 0.00 | 0.00 | 88 | 1009.2 |
| 20260508183529 | 70 | 90 | 7.0 | 11.0 | 0.00 | 0.00 | 0.00 | 88 | 1009.2 |
| 20260508183028 | 70 | 90 | 7.0 | 10.0 | 0.00 | 0.00 | 0.00 | 88 | 1009.2 |
| 20260508182530 | 71 | 15 | 7.0 | 10.0 | 0.00 | 0.00 | 0.00 | 88 | 1009.3 |
| 20260508182028 | 71 | 90 | 6.0 | 11.0 | 0.00 | 0.00 | 0.00 | 88 | 1009.3 |